Location: ??
(34.7252°N, 135.5457°E)
Time: 07:22:07
(UTC+00:00)

Okean 3 - Pass Details

Date: 24 September 2020
Orbit: 575 x 602 km, 82.5° (Epoch: 28 October)

Event Time Altitude Azimuth Distance (km) Brightness Sun altitude
Rises 20:17:23 0° 181° (S) 2,836 6.9 -7.1°
Reaches altitude 10° 20:19:35 10° 179° (S) 1,937 6.1 -6.7°
Maximum altitude 20:23:52 74° 95° (E) 629 3.8 -5.8°
Drops below altitude 10° 20:28:09 10° 11° (N) 1,946 6.3 -4.9°
Sets 20:30:22 0° 9° (N) 2,850 7.1 -4.5°
